Main page
METAR-TAF:

METAR-TAF

Airports :

Pittsfield Penstone Municipal Airport

Pittsfield, Illinois, United States

latitude: 39-38-20N, longitude: 090-46-42W, elevation: 708 ft

Current weather observation

The report was made 40 minutes ago, at 07:55 UTC
Wind 3 mph from the South/Southeast
Temperature 70°F
Humidity 94%
Pressure 30.12 in. Hg
Visibility: 5 miles
Clear sky

METAR: KPPQ 130755Z AUTO 16003KT 5SM CLR 21/20 A3012 RMK AO2 T02060204

Time: 03:35 (08:35 UTC)


TAF: missing

Weather observations and forecasts of more than 4000 airports (METAR and TAF reports).

The available stations are represented by yellow and red dots on the map.

Hover mouse over dot to see the name of the station.

Then click to see weather observations and forecasts.

To change the map : click on the green buttons with a black cross to zoom in, on the green button with a dash to zoom out, or on the green arrows for adjacent maps.


METAR-TAF: